Home   Weather   Larvik   Past weeks

Flag for Norway Past Weather in Larvik, Norway — Yesterday and Last 2 Weeks

Now
45 °F

Scattered clouds.


Feels Like: 38 °F
Forecast: 37 / 47 °F
Wind: 14 mph from South

Location: Torp

Current Time: Apr 26, 2017 at 4:08:28 pm

Latest Report: Apr 26, 2017 at 3:20 pm


Visibility: N/A

Pressure: 29.77 "Hg

Humidity: 49%

Dew Point: 27 °F

Location of LarvikLocation

Past Weather in Larvik — Graph

°F

Larvik Temperature Yesterday

Maximum temperature yesterday: 41 °F (at 2:50 pm)
Minimum temperature yesterday: 32 °F (at 12:20 am)
Average temperature yesterday: 37 °F

High & Low Weather Summary for the Past Weeks

 TemperatureHumidityPressure
High55 °F (Apr 21, 11:50 am)100% (Apr 11, 11:50 pm)30.54 "Hg (Apr 11, 11:50 pm)
Low27 °F (Apr 16, 2:50 am)22% (Apr 22, 1:20 pm)29.27 "Hg (Apr 24, 10:50 am)
Average39 °F70%29.83 "Hg
* Reported Apr 11 2:50 pm — Apr 26 2:50 pm, Larvik, Weather by CustomWeather, © 2017

Note: Actual official high and low records may vary slightly from our data, if they occured in-between our weather recording intervals... More about our weather records

Advertising

Larvik Weather History for the Previous 24 Hours

Scroll right to see more
 ConditionsComfort  
Time TempWeatherWind HumidityBarometerVisibility
2:50 pm
Wed, Apr 26
45 °FScattered clouds.8 mph46%29.77 "HgN/A
2:20 pm48 °FSunny.6 mph27%29.77 "Hg10 mi
1:50 pm46 °FPassing clouds.8 mph29%29.77 "HgN/A
1:20 pm46 °FPassing clouds.8 mph27%29.77 "HgN/A
12:50 pm46 °FPassing clouds.9 mph32%29.77 "HgN/A
12:20 pm45 °FPassing clouds.9 mph34%29.77 "HgN/A
11:50 am45 °FPassing clouds.6 mph37%29.77 "HgN/A
11:20 am45 °FPassing clouds.8 mph37%29.77 "HgN/A
10:50 am43 °FPassing clouds.10 mph39%29.77 "HgN/A
10:20 am43 °FPassing clouds.10 mph39%29.77 "HgN/A
9:50 am43 °FPassing clouds.10 mph39%29.77 "HgN/A
9:20 am41 °FSunny.13 mph42%29.77 "Hg10 mi
8:50 am41 °FSunny.10 mph45%29.77 "Hg10 mi
8:20 am39 °FSunny.13 mph45%29.74 "Hg10 mi
7:50 am37 °FSunny.7 mph52%29.74 "Hg10 mi
7:20 am36 °FSunny.9 mph52%29.74 "Hg10 mi
6:50 am36 °FSunny.12 mph56%29.74 "Hg10 mi
6:20 am34 °FSunny.9 mph60%29.71 "Hg10 mi
5:50 am34 °FSunny.10 mph60%29.71 "Hg10 mi
5:33 am34 °FClear.10 mph60%29.71 "Hg10 mi
5:20 am34 °FChilly.8 mph60%29.71 "HgN/A
4:50 am34 °FChilly.9 mph60%29.71 "HgN/A
4:20 am36 °FChilly.10 mph56%29.71 "HgN/A
3:50 am36 °FChilly.10 mph56%29.68 "HgN/A
3:20 am36 °FChilly.12 mph56%29.68 "HgN/A
2:50 am36 °FChilly.13 mph56%29.68 "HgN/A
2:20 am36 °FChilly.13 mph56%29.68 "HgN/A
1:50 am36 °FChilly.13 mph56%29.65 "HgN/A
1:20 am37 °FChilly.13 mph56%29.65 "HgN/A
12:50 am37 °FChilly.13 mph56%29.65 "HgN/A
12:20 am37 °FChilly.12 mph56%29.65 "HgN/A
11:50 pm
Tue, Apr 25
37 °FChilly.14 mph60%29.62 "HgN/A
11:20 pm37 °FChilly.15 mph60%29.62 "HgN/A
10:50 pm37 °FClear.13 mph60%29.62 "Hg10 mi
10:20 pm37 °FClear.12 mph60%29.62 "Hg10 mi
9:50 pm39 °FClear.12 mph56%29.59 "Hg10 mi
9:20 pm39 °FClear.13 mph61%29.59 "Hg10 mi
8:50 pm39 °FSunny.14 mph56%29.59 "Hg10 mi
8:20 pm41 °FSunny.14 mph53%29.56 "Hg10 mi
7:50 pm41 °FSunny.14 mph57%29.56 "Hg10 mi
7:20 pm41 °FScattered clouds.12 mph61%29.56 "HgN/A
6:50 pm41 °FScattered clouds.17 mph66%29.56 "HgN/A
6:20 pm41 °FScattered showers. Scattered clouds.14 mph61%29.56 "HgN/A
5:50 pm41 °FScattered showers. Scattered clouds.16 mph66%29.53 "HgN/A
5:20 pm39 °FScattered clouds.18 mph75%29.53 "HgN/A
4:50 pm39 °FScattered showers. Broken clouds.22 mph75%29.53 "HgN/A
4:20 pm41 °FSprinkles. Broken clouds.23 mph61%29.53 "HgN/A
Weather by CustomWeather, © 2017

See weather overviewHow to use our weather pages